TimeCDT,TemperatureF,Dew PointF,Humidity,Sea Level PressureIn,VisibilityMPH,Wind Direction,Wind SpeedMPH,Gust SpeedMPH,PrecipitationIn,Events,Conditions,WindDirDegrees,DateUTC
12:15 AM,37.0,36.9,99,30.11,10.0,Calm,Calm,-,N/A,,Overcast,0,2013-10-24 05:15:00
12:35 AM,37.6,37.4,99,30.11,10.0,Calm,Calm,-,N/A,,Overcast,0,2013-10-24 05:35:00
12:55 AM,37.9,37.0,97,30.12,10.0,Calm,Calm,-,N/A,,Overcast,0,2013-10-24 05:55:00
1:15 AM,38.3,37.8,98,30.12,10.0,Calm,Calm,-,N/A,,Overcast,0,2013-10-24 06:15:00
1:35 AM,38.5,38.5,100,30.13,10.0,Calm,Calm,-,N/A,,Overcast,0,2013-10-24 06:35:00
1:55 AM,38.7,38.7,100,30.13,10.0,Calm,Calm,-,N/A,,Overcast,0,2013-10-24 06:55:00
2:15 AM,39.0,38.7,99,30.13,10.0,Calm,Calm,-,N/A,,Overcast,0,2013-10-24 07:15:00
2:35 AM,39.0,39.0,100,30.13,10.0,Calm,Calm,-,N/A,,Overcast,0,2013-10-24 07:35:00
2:55 AM,39.2,39.2,100,30.13,10.0,Calm,Calm,-,N/A,,Overcast,0,2013-10-24 07:55:00
3:15 AM,39.2,39.2,100,30.13,10.0,Calm,Calm,-,N/A,,Overcast,0,2013-10-24 08:15:00
3:35 AM,39.2,39.2,100,30.13,10.0,Calm,Calm,-,N/A,,Overcast,0,2013-10-24 08:35:00
3:55 AM,39.4,39.4,100,30.12,10.0,Calm,Calm,-,N/A,,Overcast,0,2013-10-24 08:55:00
4:15 AM,39.4,39.4,100,30.12,10.0,Calm,Calm,-,N/A,,Overcast,0,2013-10-24 09:15:00
4:35 AM,39.7,39.6,99,30.13,10.0,Calm,Calm,-,N/A,,Overcast,0,2013-10-24 09:35:00
4:55 AM,39.7,39.7,100,30.13,10.0,Calm,Calm,-,N/A,,Overcast,0,2013-10-24 09:55:00
5:15 AM,39.7,39.7,100,30.14,10.0,Calm,Calm,-,N/A,,Overcast,0,2013-10-24 10:15:00
5:35 AM,39.7,39.7,100,30.14,10.0,Calm,Calm,-,N/A,,Overcast,0,2013-10-24 10:35:00
5:55 AM,39.7,39.7,100,30.14,10.0,Calm,Calm,-,N/A,,Overcast,0,2013-10-24 10:55:00
6:15 AM,39.7,39.7,100,30.15,10.0,Calm,Calm,-,N/A,,Overcast,0,2013-10-24 11:15:00
6:35 AM,39.7,39.7,100,30.15,10.0,Calm,Calm,-,N/A,,Overcast,0,2013-10-24 11:35:00
6:55 AM,39.9,39.9,100,30.15,10.0,Calm,Calm,-,N/A,,Overcast,0,2013-10-24 11:55:00
7:15 AM,40.1,40.1,100,30.15,10.0,Calm,Calm,-,N/A,,Overcast,0,2013-10-24 12:15:00
7:35 AM,40.1,40.1,100,30.15,10.0,Calm,Calm,-,N/A,,Overcast,0,2013-10-24 12:35:00
7:55 AM,40.5,39.4,96,30.16,10.0,Calm,Calm,-,N/A,,Overcast,0,2013-10-24 12:55:00
8:15 AM,41.2,38.7,91,30.17,10.0,Calm,Calm,-,N/A,,Overcast,0,2013-10-24 13:15:00
8:35 AM,41.9,38.8,89,30.17,10.0,Calm,Calm,-,N/A,,Overcast,0,2013-10-24 13:35:00
8:55 AM,43.2,38.8,85,30.18,10.0,Calm,Calm,-,N/A,,Overcast,0,2013-10-24 13:55:00
9:15 AM,44.8,35.8,71,30.18,10.0,Calm,Calm,-,N/A,,Mostly Cloudy,0,2013-10-24 14:15:00
9:35 AM,45.7,32.2,59,30.18,10.0,Calm,Calm,-,N/A,,Overcast,0,2013-10-24 14:35:00
9:55 AM,45.9,32.0,58,30.19,10.0,Calm,Calm,-,N/A,,Overcast,0,2013-10-24 14:55:00
10:15 AM,46.2,32.0,58,30.19,10.0,SW,5.8,-,N/A,,Overcast,220,2013-10-24 15:15:00
10:35 AM,46.6,31.6,56,30.18,10.0,WSW,5.8,-,N/A,,Overcast,240,2013-10-24 15:35:00
10:55 AM,47.8,31.6,53,30.18,10.0,SW,9.2,-,N/A,,Mostly Cloudy,230,2013-10-24 15:55:00
11:15 AM,48.9,31.8,52,30.18,10.0,WSW,8.1,-,N/A,,Scattered Clouds,250,2013-10-24 16:15:00
11:35 AM,50.0,31.8,50,30.18,10.0,WSW,10.4,-,N/A,,Clear,240,2013-10-24 16:35:00
11:55 AM,50.5,32.0,49,30.18,10.0,WSW,9.2,-,N/A,,Clear,250,2013-10-24 16:55:00
12:15 PM,51.4,32.0,47,30.18,10.0,West,9.2,-,N/A,,Scattered Clouds,270,2013-10-24 17:15:00
12:35 PM,51.8,32.5,48,30.18,10.0,West,8.1,-,N/A,,Mostly Cloudy,260,2013-10-24 17:35:00
12:55 PM,50.2,32.5,51,30.17,10.0,WNW,6.9,-,N/A,,Overcast,290,2013-10-24 17:55:00
1:15 PM,49.1,32.4,53,30.17,10.0,West,4.6,-,N/A,,Overcast,280,2013-10-24 18:15:00
1:35 PM,48.9,32.7,54,30.16,10.0,West,9.2,-,N/A,,Overcast,270,2013-10-24 18:35:00
1:55 PM,48.4,32.9,55,30.16,10.0,WNW,8.1,-,N/A,,Overcast,290,2013-10-24 18:55:00
2:15 PM,48.2,33.3,56,30.17,10.0,WNW,9.2,-,N/A,,Overcast,290,2013-10-24 19:15:00
2:35 PM,48.2,33.3,56,30.17,10.0,NW,9.2,-,N/A,,Overcast,310,2013-10-24 19:35:00
2:55 PM,47.5,33.1,57,30.18,10.0,WNW,8.1,-,N/A,,Overcast,290,2013-10-24 19:55:00
3:15 PM,46.8,33.3,59,30.18,10.0,WNW,9.2,-,N/A,,Overcast,290,2013-10-24 20:15:00
3:35 PM,46.4,32.9,59,30.19,10.0,WNW,12.7,16.1,N/A,,Overcast,300,2013-10-24 20:35:00
3:55 PM,46.0,33.1,61,30.20,10.0,NW,5.8,-,N/A,,Overcast,320,2013-10-24 20:55:00
4:15 PM,45.0,33.6,64,30.21,10.0,NW,6.9,-,N/A,,Overcast,320,2013-10-24 21:15:00
4:35 PM,44.1,32.7,64,30.22,10.0,WNW,10.4,-,N/A,,Overcast,300,2013-10-24 21:35:00
4:55 PM,44.1,32.0,63,30.23,10.0,NW,6.9,-,N/A,,Overcast,310,2013-10-24 21:55:00
5:15 PM,43.3,32.0,64,30.24,10.0,NNW,9.2,-,N/A,,Overcast,340,2013-10-24 22:15:00
5:35 PM,42.1,31.5,66,30.25,10.0,NW,8.1,-,N/A,,Overcast,320,2013-10-24 22:35:00
5:55 PM,41.0,30.6,66,30.26,10.0,NNW,4.6,-,N/A,,Mostly Cloudy,340,2013-10-24 22:55:00
6:15 PM,40.3,30.2,67,30.27,10.0,NW,4.6,-,N/A,,Mostly Cloudy,320,2013-10-24 23:15:00
6:35 PM,39.0,29.5,69,30.28,10.0,NNW,5.8,-,N/A,,Scattered Clouds,330,2013-10-24 23:35:00
6:55 PM,38.3,28.6,68,30.29,10.0,NNW,4.6,-,N/A,,Clear,330,2013-10-24 23:55:00
7:15 PM,37.6,26.6,65,30.29,10.0,NNW,4.6,-,N/A,,Clear,330,2013-10-25 00:15:00
7:35 PM,37.0,25.2,62,30.29,10.0,North,3.5,-,N/A,,Clear,350,2013-10-25 00:35:00
7:55 PM,35.1,25.5,68,30.30,10.0,Calm,Calm,-,N/A,,Clear,0,2013-10-25 00:55:00
8:15 PM,34.5,25.5,70,30.31,10.0,Calm,Calm,-,N/A,,Clear,0,2013-10-25 01:15:00
8:35 PM,34.3,25.0,69,30.31,10.0,Calm,Calm,-,N/A,,Clear,0,2013-10-25 01:35:00
8:55 PM,33.6,25.3,72,30.32,10.0,Calm,Calm,-,N/A,,Clear,0,2013-10-25 01:55:00
9:15 PM,32.4,25.9,77,30.32,10.0,Calm,Calm,-,N/A,,Clear,0,2013-10-25 02:15:00
9:35 PM,31.5,26.6,82,30.33,10.0,Calm,Calm,-,N/A,,Clear,0,2013-10-25 02:35:00
9:55 PM,31.3,26.8,83,30.33,10.0,Calm,Calm,-,N/A,,Clear,0,2013-10-25 02:55:00
10:15 PM,31.1,26.8,84,30.34,10.0,Calm,Calm,-,N/A,,Clear,0,2013-10-25 03:15:00
10:35 PM,30.7,27.0,86,30.34,10.0,Calm,Calm,-,N/A,,Clear,0,2013-10-25 03:35:00
10:55 PM,29.8,26.4,87,30.34,10.0,Calm,Calm,-,N/A,,Clear,0,2013-10-25 03:55:00
11:15 PM,29.3,26.1,88,30.35,10.0,Calm,Calm,-,N/A,,Clear,0,2013-10-25 04:15:00
11:35 PM,28.2,26.2,92,30.35,10.0,Calm,Calm,-,N/A,,Clear,0,2013-10-25 04:35:00
11:55 PM,28.4,26.1,91,30.35,10.0,Calm,Calm,-,N/A,,Clear,0,2013-10-25 04:55:00